N6OIM Weather Reports


Display with metric or nautical units.
time (UTC)temp
F
wind
direction
speed
MPH
gust
MPH
rain 1hr
in
rain 24hr
in
rain mn
in
humidity
%
barometer
mb
20260901170818 67 130 0.0 0.0 0.00 0.00 0.00 61 1014.4
20260901170328 67 133 0.0 0.0 0.00 0.00 0.00 62 1014.4
20260901165820 67 223 0.0 0.0 0.00 0.00 0.00 62 1014.4
20260901165330 67 159 0.0 0.0 0.00 0.00 0.00 61 1014.4
20260901164822 67 200 0.0 0.0 0.00 0.00 0.00 61 1014.4
20260901164333 67 248 0.0 0.0 0.00 0.00 0.00 62 1014.4
20260901163823 66 173 0.0 0.0 0.00 0.00 0.00 63 1014.3
20260901163332 66 184 0.0 0.0 0.00 0.00 0.00 63 1014.3
20260901162824 66 260 0.0 0.0 0.00 0.00 0.00 64 1014.3
20260901162333 66 259 0.0 0.0 0.00 0.00 0.00 64 1014.3
20260901161825 66 188 0.0 0.0 0.00 0.00 0.00 65 1014.2
20260901161335 65 257 0.0 0.0 0.00 0.00 0.00 65 1014.2
20260901160822 65 133 0.0 0.0 0.00 0.00 0.00 66 1014.1
20260901160331 65 208 0.0 0.0 0.00 0.00 0.00 66 1014.0
20260901155822 65 165 0.0 0.0 0.00 0.00 0.00 67 1014.0
20260901155331 64 205 0.0 0.0 0.00 0.00 0.00 68 1014.0
20260901154821 64 182 0.0 0.0 0.00 0.00 0.00 69 1013.9
20260901154330 64 180 0.0 0.0 0.00 0.00 0.00 70 1013.8
20260901153818 63 163 0.0 0.0 0.00 0.00 0.00 70 1013.6
20260901153331 63 167 0.0 0.0 0.00 0.00 0.00 71 1013.5
20260901152819 63 155 0.0 0.0 0.00 0.00 0.00 72 1013.5
20260901152329 63 164 0.0 0.0 0.00 0.00 0.00 72 1013.4
20260901151837 62 160 0.0 0.0 0.00 0.00 0.00 73 1013.4
20260901151325 62 143 0.0 0.0 0.00 0.00 0.00 73 1013.3
20260901150833 62 137 0.0 0.0 0.00 0.00 0.00 73 1013.3
20260901150322 61 150 0.0 0.0 0.00 0.00 0.00 74 1013.3
20260901145829 61 150 0.0 0.0 0.00 0.00 0.00 74 1013.3
20260901145320 61 152 0.0 0.0 0.00 0.00 0.00 74 1013.3
20260901144833 61 136 0.0 0.0 0.00 0.00 0.00 74 1013.2
20260901144321 61 159 0.0 0.0 0.00 0.00 0.00 75 1013.2
20260901143833 61 150 0.0 0.0 0.00 0.00 0.00 75 1013.2
20260901143322 61 146 0.0 0.0 0.00 0.00 0.00 75 1013.1
20260901142831 60 122 0.0 0.0 0.00 0.00 0.00 75 1012.9
20260901142321 60 123 0.0 0.0 0.00 0.00 0.00 75 1012.9
20260901141829 60 121 0.0 0.0 0.00 0.00 0.00 75 1012.8
20260901141318 60 123 0.0 0.0 0.00 0.00 0.00 75 1012.6
20260901140827 60 125 0.0 0.0 0.00 0.00 0.00 75 1012.5
20260901140320 60 125 0.0 0.0 0.00 0.00 0.00 75 1012.5
20260901135828 60 125 0.0 0.0 0.00 0.00 0.00 75 1012.4
20260901135317 60 114 0.0 0.0 0.00 0.00 0.00 75 1012.4
20260901134826 60 113 0.0 0.0 0.00 0.00 0.00 75 1012.3
20260901134316 60 150 0.0 0.0 0.00 0.00 0.00 76 1012.4
20260901133828 60 141 0.0 0.0 0.00 0.00 0.00 76 1012.3
20260901133318 60 138 0.0 0.0 0.00 0.00 0.00 76 1012.4
20260901132827 60 178 0.0 0.0 0.00 0.00 0.00 76 1012.3
20260901132321 60 153 0.0 0.0 0.00 0.00 0.00 76 1012.2
20260901131830 60 119 0.0 0.0 0.00 0.00 0.00 76 1012.2
20260901131319 60 119 0.0 0.0 0.00 0.00 0.00 76 1012.1
20260901130829 60 119 0.0 0.0 0.00 0.00 0.00 76 1012.0
20260901130318 60 124 0.0 0.0 0.00 0.00 0.00 76 1011.9
20260901125829 60 144 0.0 0.0 0.00 0.00 0.00 76 1011.9
20260901125318 60 121 0.0 0.0 0.00 0.00 0.00 76 1012.0
20260901124829 60 123 0.0 0.0 0.00 0.00 0.00 76 1011.9
20260901124321 60 123 0.0 0.0 0.00 0.00 0.00 75 1011.9
20260901123836 60 123 0.0 0.0 0.00 0.00 0.00 75 1012.0
20260901123325 60 121 0.0 0.0 0.00 0.00 0.00 75 1012.0
20260901122833 60 120 0.0 0.0 0.00 0.00 0.00 75 1011.9
20260901122325 60 127 0.0 0.0 0.00 0.00 0.00 75 1012.0
20260901121833 60 132 0.0 0.0 0.00 0.00 0.00 75 1012.0
20260901121323 60 124 0.0 0.0 0.00 0.00 0.00 75 1012.1
20260901120832 60 129 0.0 0.0 0.00 0.00 0.00 75 1012.0
20260901120325 60 128 0.0 0.0 0.00 0.00 0.00 75 1012.1
20260901115822 60 111 0.0 0.0 0.00 0.00 0.00 75 1012.0
20260901115331 60 111 0.0 0.0 0.00 0.00 0.00 75 1012.0
20260901114822 60 122 0.0 0.0 0.00 0.00 0.00 75 1011.9
20260901114331 60 121 0.0 0.0 0.00 0.00 0.00 75 1011.8
20260901113822 60 121 0.0 0.0 0.00 0.00 0.00 75 1011.7
20260901113331 60 119 0.0 0.0 0.00 0.00 0.00 76 1011.7
20260901112822 60 169 0.0 0.0 0.00 0.00 0.00 76 1011.7
20260901112330 60 121 0.0 0.0 0.00 0.00 0.00 76 1011.6
20260901111818 60 117 0.0 0.0 0.00 0.00 0.00 76 1011.5
20260901111331 60 126 0.0 0.0 0.00 0.00 0.00 76 1011.6
20260901110820 60 136 0.0 0.0 0.00 0.00 0.00 76 1011.6
20260901110329 60 119 0.0 0.0 0.00 0.00 0.00 76 1011.6
20260901105836 60 125 0.0 0.0 0.00 0.00 0.00 76 1011.7
20260901105325 60 115 0.0 0.0 0.00 0.00 0.00 76 1011.6
20260901104833 60 119 0.0 0.0 0.00 0.00 0.00 76 1011.6
20260901104324 60 118 0.0 0.0 0.00 0.00 0.00 76 1011.5
20260901103832 60 118 0.0 0.0 0.00 0.00 0.00 76 1011.4
20260901103321 60 117 0.0 0.0 0.00 0.00 0.00 76 1011.4
20260901102833 60 117 0.0 0.0 0.00 0.00 0.00 76 1011.4
20260901102322 60 117 0.0 0.0 0.00 0.00 0.00 76 1011.3
20260901101830 60 122 0.0 0.0 0.00 0.00 0.00 76 1011.4
20260901101319 60 121 0.0 0.0 0.00 0.00 0.00 76 1011.4
20260901100831 60 128 0.0 0.0 0.00 0.00 0.00 76 1011.5
20260901100319 60 114 0.0 0.0 0.00 0.00 0.00 76 1011.5
20260901095828 60 125 0.0 0.0 0.00 0.00 0.00 76 1011.5
20260901095317 60 127 0.0 0.0 0.00 0.00 0.00 76 1011.5
20260901094828 60 121 0.0 0.0 0.00 0.00 0.00 76 1011.5
20260901094323 60 121 0.0 0.0 0.00 0.00 0.00 76 1011.5
20260901093830 60 122 0.0 0.0 0.00 0.00 0.00 76 1011.5
20260901093322 60 121 0.0 0.0 0.00 0.00 0.00 76 1011.5
20260901092831 60 160 0.0 0.0 0.00 0.00 0.00 76 1011.5
20260901092321 60 115 0.0 0.0 0.00 0.00 0.00 76 1011.5
20260901091830 60 115 0.0 0.0 0.00 0.00 0.00 76 1011.4
20260901091320 60 120 0.0 0.0 0.00 0.00 0.00 76 1011.5
20260901090829 60 165 0.0 0.0 0.00 0.00 0.00 76 1011.5
20260901090322 60 125 0.0 0.0 0.00 0.00 0.00 76 1011.7
20260901085834 60 192 0.0 0.0 0.00 0.00 0.00 76 1011.6
20260901085323 60 124 0.0 0.0 0.00 0.00 0.00 76 1011.7
20260901084832 60 119 0.0 0.0 0.00 0.00 0.00 76 1011.6
20260901084322 60 127 0.0 0.0 0.00 0.00 0.00 76 1011.6
20260901083831 60 113 0.0 0.0 0.00 0.00 0.00 76 1011.6
20260901083320 60 126 0.0 0.0 0.00 0.00 0.00 76 1011.5
20260901082832 60 118 0.0 0.0 0.00 0.00 0.00 76 1011.6
20260901082320 60 134 0.0 0.0 0.00 0.00 0.00 76 1011.5
20260901081832 60 126 0.0 0.0 0.00 0.00 0.00 76 1011.6
20260901081323 60 133 0.0 0.0 0.00 0.00 0.00 76 1011.5
20260901080831 60 152 0.0 0.0 0.00 0.00 0.00 76 1011.5
20260901080323 60 129 0.0 0.0 0.00 0.00 0.00 76 1011.6
20260901075831 60 111 0.0 0.0 0.00 0.00 0.00 76 1011.6
20260901075323 60 110 0.0 0.0 0.00 0.00 0.00 76 1011.6
20260901074832 60 119 0.0 0.0 0.00 0.00 0.00 76 1011.6
20260901074321 60 110 0.0 0.0 0.00 0.00 0.00 76 1011.6
20260901073830 60 109 0.0 0.0 0.00 0.00 0.00 76 1011.6
20260901073324 60 123 0.0 0.0 0.00 0.00 0.00 76 1011.6
20260901072833 60 126 0.0 0.0 0.00 0.00 0.00 76 1011.5
20260901072323 60 145 0.0 0.0 0.00 0.00 0.00 76 1011.5
20260901071831 60 130 0.0 0.0 0.00 0.00 0.00 76 1011.5
20260901071321 60 133 0.0 0.0 0.00 0.00 0.00 76 1011.4
20260901070813 60 132 0.0 0.0 0.00 0.00 0.00 76 1011.4
20260901070326 60 140 0.0 0.0 0.00 0.00 0.00 76 1011.4
20260901065817 60 119 0.0 0.0 0.00 0.00 0.00 76 1011.4
20260901065330 60 119 0.0 0.0 0.00 0.00 0.00 75 1011.4
20260901064819 60 116 0.0 0.0 0.00 0.00 0.00 75 1011.4
20260901064332 60 133 0.0 0.0 0.00 0.00 0.00 75 1011.4
20260901063821 60 134 0.0 0.0 0.00 0.00 0.00 75 1011.5
20260901063331 61 131 0.0 0.0 0.00 0.00 0.00 74 1011.4
20260901062822 61 131 0.0 0.0 0.00 0.00 0.00 74 1011.3
20260901062332 61 115 0.0 0.0 0.00 0.00 0.00 74 1011.3
20260901061822 61 103 0.0 0.0 0.00 0.00 0.00 74 1011.3
20260901061331 61 130 0.0 0.0 0.00 0.00 0.00 73 1011.3
20260901060822 61 143 0.0 0.0 0.00 0.00 0.00 73 1011.2
20260901060331 61 144 0.0 0.0 0.00 0.00 0.00 73 1011.2
20260901055818 62 144 0.0 0.0 0.00 0.00 0.00 73 1011.2
20260901055326 62 126 0.0 0.0 0.00 0.00 0.00 72 1011.1
20260901054835 62 151 0.0 0.0 0.00 0.00 0.00 72 1011.1
20260901054324 62 155 0.0 0.0 0.00 0.00 0.00 72 1011.1
20260901053832 62 156 0.0 0.0 0.00 0.00 0.00 72 1011.2
20260901053321 62 156 0.0 0.0 0.00 0.00 0.00 72 1011.2
20260901052829 62 156 0.0 0.0 0.00 0.00 0.00 71 1011.2
20260901052323 63 164 0.0 0.0 0.00 0.00 0.00 71 1011.1
20260901051831 63 202 0.0 0.0 0.00 0.00 0.00 71 1011.2
20260901051323 63 170 0.0 0.0 0.00 0.00 0.00 71 1011.2
20260901050832 63 175 0.0 0.0 0.00 0.00 0.00 71 1011.2
20260901050324 63 175 0.0 0.0 0.00 0.00 0.00 71 1011.2
20260901045813 63 180 0.0 0.0 0.00 0.00 0.00 71 1011.2
20260901045326 63 132 0.0 0.0 0.00 0.00 0.00 70 1011.1
20260901044817 63 144 0.0 0.0 0.00 0.00 0.00 70 1011.1
20260901044330 64 166 0.0 0.0 0.00 0.00 0.00 70 1011.0
20260901043819 64 173 0.0 0.0 0.00 0.00 0.00 70 1011.0
20260901043331 64 155 0.0 0.0 0.00 0.00 0.00 70 1011.0
20260901042818 64 151 0.0 0.0 0.00 0.00 0.00 69 1010.9
20260901042327 64 139 0.0 0.0 0.00 0.00 0.00 69 1011.0
20260901041818 64 192 0.0 0.0 0.00 0.00 0.00 69 1010.9
20260901041329 64 184 0.0 0.0 0.00 0.00 0.00 68 1010.8
20260901040818 65 186 0.0 0.0 0.00 0.00 0.00 68 1010.7
20260901040327 65 123 0.0 0.0 0.00 0.00 0.00 68 1010.7
20260901035819 65 157 0.0 0.0 0.00 0.00 0.00 68 1010.6
20260901035329 65 158 0.0 0.0 0.00 0.00 0.00 67 1010.5
20260901034820 65 140 0.0 0.0 0.00 0.00 0.00 67 1010.5
20260901034331 65 137 0.0 0.0 0.00 0.00 0.00 67 1010.5
20260901033820 66 183 0.0 0.0 0.00 0.00 0.00 66 1010.3
20260901033329 66 192 0.0 0.0 0.00 0.00 0.00 66 1010.1
20260901032818 66 202 0.0 0.0 0.00 0.00 0.00 65 1010.0
20260901032329 66 230 0.0 0.0 0.00 0.00 0.00 64 1010.0
20260901031822 67 236 0.0 0.0 0.00 0.00 0.00 64 1010.1
20260901031332 67 155 0.0 0.0 0.00 0.00 0.00 64 1010.0
20260901030821 67 188 0.0 0.0 0.00 0.00 0.00 63 1009.8
20260901030331 68 188 0.0 0.0 0.00 0.00 0.00 63 1009.7
20260901025820 68 206 0.0 0.0 0.00 0.00 0.00 62 1009.6
20260901025329 68 182 0.0 0.0 0.00 0.00 0.00 61 1009.6
20260901024816 69 171 0.0 0.0 0.00 0.00 0.00 61 1009.6
20260901024328 69 171 0.0 0.0 0.00 0.00 0.00 60 1009.6
20260901023818 69 170 0.0 0.0 0.00 0.00 0.00 59 1009.7
20260901023331 70 240 0.0 0.0 0.00 0.00 0.00 58 1009.5
20260901022823 70 221 0.0 0.0 0.00 0.00 0.00 58 1009.5
20260901022331 70 237 0.0 0.0 0.00 0.00 0.00 57 1009.4
20260901021820 71 238 0.0 0.0 0.00 0.00 0.00 55 1009.3
20260901021329 71 231 0.0 0.0 0.00 0.00 0.00 55 1009.2
20260901020817 72 230 0.0 0.0 0.00 0.00 0.00 54 1009.2
20260901020327 72 229 0.0 0.0 0.00 0.00 0.00 53 1009.2
20260901015835 73 236 0.0 0.0 0.00 0.00 0.00 53 1009.2
20260901015325 73 228 0.0 0.0 0.00 0.00 0.00 52 1009.1
20260901014818 74 198 0.0 0.0 0.00 0.00 0.00 51 1009.1
20260901014330 74 240 0.0 0.0 0.00 0.00 0.00 50 1008.9
20260901013818 75 240 0.0 0.0 0.00 0.00 0.00 49 1009.0
20260901013330 75 207 0.0 0.0 0.00 0.00 0.00 48 1009.0
20260901012818 76 234 0.0 0.0 0.00 0.00 0.00 48 1009.0
20260901012331 76 232 0.0 0.0 0.00 0.00 0.00 47 1009.0
20260901011821 77 244 0.0 0.0 0.00 0.00 0.00 45 1009.0
20260901011329 77 146 0.0 0.0 0.00 0.00 0.00 45 1009.0
20260901010825 78 164 0.0 0.0 0.00 0.00 0.00 44 1009.0
20260901010336 78 228 0.0 0.0 0.00 0.00 0.00 45 1009.1
20260901005825 79 157 0.0 0.0 0.00 0.00 0.00 44 1009.0
20260901005335 79 187 0.0 0.0 0.00 0.00 0.00 44 1009.1
20260901004823 79 149 0.0 0.0 0.00 0.00 0.00 44 1009.1
20260901004332 79 144 0.0 0.0 0.00 0.00 0.00 44 1009.0
20260901003819 79 226 0.0 0.0 0.00 0.00 0.00 43 1009.1
20260901003328 79 236 0.0 0.0 0.00 0.00 0.00 43 1009.1
20260901002836 79 208 0.0 0.0 0.00 0.00 0.00 43 1009.2
20260901002329 79 242 0.0 0.0 0.00 0.00 0.00 43 1009.1
20260901001817 79 198 0.0 0.0 0.00 0.00 0.00 43 1009.1
20260901001327 79 224 0.0 0.0 0.00 0.00 0.00 43 1009.1
20260901000836 79 235 0.0 0.0 0.00 0.00 0.00 43 1009.1
20260901000328 79 237 0.0 0.0 0.00 0.00 0.00 44 1009.0
20260831235833 79 223 0.0 0.0 0.00 0.00 0.00 44 1009.1
20260831235324 80 222 0.0 0.0 0.00 0.00 0.00 43 1009.1
20260831234833 80 196 0.0 0.0 0.00 0.00 0.00 44 1009.1
20260831234323 80 171 0.0 0.0 0.00 0.00 0.00 43 1009.1
20260831233818 80 245 0.0 0.0 0.00 0.00 0.00 43 1009.1
20260831233331 80 240 0.0 0.0 0.00 0.00 0.00 43 1009.2
20260831232820 80 213 0.0 0.0 0.00 0.00 0.00 43 1009.2
20260831232330 80 192 0.0 0.0 0.00 0.00 0.00 43 1009.3
20260831231819 80 234 0.0 0.0 0.00 0.00 0.00 43 1009.3
20260831231331 81 225 0.0 0.0 0.00 0.00 0.00 43 1009.4
20260831230821 81 230 0.0 0.0 0.00 0.00 0.00 43 1009.4
20260831230331 81 240 0.0 0.0 0.00 0.00 0.00 43 1009.5
20260831225822 81 160 0.0 0.0 0.00 0.00 0.00 43 1009.5
20260831225330 80 229 0.0 0.0 0.00 0.00 0.00 44 1009.5
20260831224818 80 229 0.0 0.0 0.00 0.00 0.00 43 1009.6
20260831224327 80 230 0.0 0.0 0.00 0.00 0.00 44 1009.6
20260831223815 80 220 0.0 0.0 0.00 0.00 0.00 43 1009.7
20260831223327 80 244 0.0 0.0 0.00 0.00 0.00 43 1009.7
20260831222816 80 240 0.0 0.0 0.00 0.00 0.00 44 1009.7
20260831222325 80 215 0.0 0.0 0.00 0.00 0.00 43 1009.7
20260831221813 80 242 0.0 0.0 0.00 0.00 0.00 43 1009.9
20260831221329 80 242 0.0 0.0 0.00 0.00 0.00 43 1010.0
20260831220820 79 228 0.0 0.0 0.00 0.00 0.00 43 1010.1
20260831220330 79 230 0.0 0.0 0.00 0.00 0.00 44 1010.1
20260831215821 79 235 0.0 0.0 0.00 0.00 0.00 44 1010.0
20260831215330 79 236 0.0 0.0 0.00 0.00 0.00 43 1010.1
20260831214819 79 237 0.0 0.0 0.00 0.00 0.00 45 1010.2
20260831214331 78 231 0.0 0.0 0.00 0.00 0.00 44 1010.2
20260831213821 78 223 0.0 0.0 0.00 0.00 0.00 44 1010.1
20260831213332 78 233 0.0 0.0 0.00 0.00 0.00 45 1010.2
20260831212824 78 237 0.0 0.0 0.00 0.00 0.00 45 1010.2
20260831212332 78 234 0.0 0.0 0.00 0.00 0.00 45 1010.2
20260831211820 78 232 0.0 0.0 0.00 0.00 0.00 46 1010.5
20260831211330 78 249 0.0 0.0 0.00 0.00 0.00 45 1010.4
20260831210818 77 233 0.0 0.0 0.00 0.00 0.00 46 1010.5
20260831210328 77 234 0.0 0.0 0.00 0.00 0.00 46 1010.4
20260831205817 77 169 0.0 0.0 0.00 0.00 0.00 46 1010.5
20260831205326 77 214 0.0 0.0 0.00 0.00 0.00 48 1010.5
20260831204819 76 232 0.0 0.0 0.00 0.00 0.00 50 1010.4
20260831204329 76 232 0.0 0.0 0.00 0.00 0.00 49 1010.5
20260831203818 76 232 0.0 0.0 0.00 0.00 0.00 49 1010.5
20260831203327 76 232 0.0 0.0 0.00 0.00 0.00 49 1010.5
20260831202835 75 224 0.0 0.0 0.00 0.00 0.00 49 1010.5
20260831202325 75 159 0.0 0.0 0.00 0.00 0.00 49 1010.7
20260831201817 75 168 0.0 0.0 0.00 0.00 0.00 48 1010.7
20260831201328 75 211 0.0 0.0 0.00 0.00 0.00 48 1010.8
20260831200820 75 133 0.0 0.0 0.00 0.00 0.00 50 1010.8
20260831200335 75 184 0.0 0.0 0.00 0.00 0.00 49 1010.9
20260831195823 74 194 0.0 0.0 0.00 0.00 0.00 51 1010.8
20260831195331 74 152 0.0 0.0 0.00 0.00 0.00 52 1010.9
20260831194822 74 203 0.0 0.0 0.00 0.00 0.00 52 1011.0
20260831194314 73 159 0.0 0.0 0.00 0.00 0.00 53 1011.0
20260831193825 73 172 0.0 0.0 0.00 0.00 0.00 53 1011.2
20260831193314 73 252 0.0 0.0 0.00 0.00 0.00 54 1011.2
20260831192826 72 253 0.0 0.0 0.00 0.00 0.00 54 1011.2
20260831192321 72 258 0.0 0.0 0.00 0.00 0.00 54 1011.3
20260831191830 72 252 0.0 0.0 0.00 0.00 0.00 54 1011.2
20260831191319 72 256 0.0 0.0 0.00 0.00 0.00 55 1011.2
20260831190827 71 254 0.0 0.0 0.00 0.00 0.00 55 1011.3
20260831190335 71 255 0.0 0.0 0.00 0.00 0.00 55 1011.3
20260831185823 71 259 0.0 0.0 0.00 0.00 0.00 55 1011.2
20260831185331 71 250 0.0 0.0 0.00 0.00 0.00 55 1011.2
20260831184819 71 260 0.0 0.0 0.00 0.00 0.00 54 1011.2
20260831184332 71 263 0.0 0.0 0.00 0.00 0.00 55 1011.2
20260831183827 71 263 0.0 0.0 0.00 0.00 0.00 56 1011.2
20260831183316 71 232 0.0 0.0 0.00 0.00 0.00 57 1011.2
20260831182825 71 244 0.0 0.0 0.00 0.00 0.00 57 1011.2
20260831182333 71 199 0.0 0.0 0.00 0.00 0.00 57 1011.3
20260831181823 70 195 0.0 0.0 0.00 0.00 0.00 56 1011.3
20260831181332 70 238 0.0 0.0 0.00 0.00 0.00 57 1011.2
20260831180820 70 230 0.0 0.0 0.00 0.00 0.00 57 1011.2
20260831180329 70 188 0.0 0.0 0.00 0.00 0.00 58 1011.2
20260831175817 70 237 0.0 0.0 0.00 0.00 0.00 58 1011.3
20260831175331 70 191 0.0 0.0 0.00 0.00 0.00 59 1011.3
20260831174820 70 208 0.0 0.0 0.00 0.00 0.00 59 1011.3
20260831174329 70 203 0.0 0.0 0.00 0.00 0.00 59 1011.2
20260831173821 70 230 0.0 0.0 0.00 0.00 0.00 59 1011.2
20260831173330 70 205 0.0 0.0 0.00 0.00 0.00 59 1011.2
20260831172820 69 196 0.0 0.0 0.00 0.00 0.00 59 1011.1
20260831172329 69 250 0.0 0.0 0.00 0.00 0.00 60 1011.1
20260831171817 69 207 0.0 0.0 0.00 0.00 0.00 61 1011.1
20260831171329 69 215 0.0 0.0 0.00 0.00 0.00 61 1011.1